Showing default

CARTOSAT 2E, 42767

Orbit data source: Space-Track

CARTOSAT 2E, 42767 is a payload satellite owned by ISRO (IN) in SSO that was launched on Fri, 23 Jun 2017 UTC via a PSLV-XL launch vehicle from the Sirharikota (SRI). Payload-class satellites include a variety of spacecraft equipped with specific instruments for various scientific and technological missions. These include communications satellites like Starlink; space stations such as the ISS; scientific satellites like the Hubble; Earth observation satellites from companies like Planet Labs, Umbra, and HawkEye 360; GPS; miniature CubeSats for education and research; and military/defense satellites.

Loading next visibility...
Identifier
42767, 2017-036C
Orbit
SSO
Country
Flag of ININ / IND
Related business
Manufacturer
ISRO
Mission
Operational Defense Imaging
Bus & Motor
IRS-2, AOCS
Mass
712 kg wet, 639 kg dry
Launch date (UTC)
2017-06-23 (9 years ago)
Launch vehicle
PSLV-XL
Launch site
Sirharikota (SRI)
Object type
Payload
Rocket body
Debris
Shape & HBR
Hex Cyl + 2 Pan, 4.0 m
Radar Cross Section
9.780 m², Large (>1 m²)

Expand to show TLE details & history
Last TLE update: 7 hours ago

TLE from 7 hours ago
0 CARTOSAT 2E
1 42767U 17036C   26122.13756900  .00005118  00000-0  24614-3 0  9992
2 42767  97.4309 182.6887 0004460 102.2312 257.9422 15.19227320491158
Epoch: 2026-05-02T03:18Z
TLE epoch observation values (Epoch: 2026-05-02T03:18:05.961Z)
Latitude
-0.00006°
Longitude
-86.89591°
Altitude
511.906 km
Speed
7.608 km/s
True Right ascension
12h 10m 45s
True Declination
0° 00' 00"
Sunlit
Object was in full shadow at epoch
Visualization orbit readout
Latitude
Unknown
Longitude
Unknown
Altitude
Unknown
Speed
Unknown
Apparent Right ascension
Unknown
Apparent Declination
Unknown
Sunlit
N/A
Visualization observer readout
Local Sidereal Time
18:00:00
Azimuth
Unknown
Elevation
Unknown
Doppler factor
Unknown
Orbital elements
Apogee altitude
508.212 km
Perigee altitude
502.073 km
Semi-major axis
6,883.279 km
Eccentricity
0.00045
Inclination
97.4309°
RAAN
182.6887°
Arg. of periapsis
102.2312°
True anomaly
257.89223°
Mean anomaly
257.9422°
Eccentric anomaly
257.91721°
Mean motion
3.80058 °/min
Orbital period
94.72 mins
BSTAR
0.00024614
Loading maneuver chart data...
Computing Atmospheric mass density...

Documentation

Showing up to 5 results
|